[[{"header":{"parameterUnit":"m.s-1","parameterCategory":1,"la1":30.2991,"la2":30.254,"lo1":-89.0895,"lo2":-89.0444,"dy":0.0017,"dx":0.0017,"nx":28,"ny":28,"refTime":"2025-07-15T21:00:00:Z","depth":0,"parameterNumber":2,"parameterNumberName":"U-component_of_WINDS"},"data":[0,0,0,0,0,0,0,0,0,0,0,0,0,0,0,0,0,0,0,0,0,0,0,0,0,0,0,0,0,0,0,0,0,0,0,0,0,0,0,0,0,0,0,0,0,0,0,0,0,0,0,0,0,0,0,0,0,0,-0.0995,-0.0995,0,-0.103,-0.103,-0.1031,-0.1084,-0.1085,-0.1086,-0.1087,-0.1123,-0.1123,-0.1123,0,0,0,0,0,0,0,0,0,0,0,0,0,-0.0973,-0.0973,-0.0995,-0.0995,-0.0995,-0.103,-0.103,-0.1031,-0.1084,-0.1085,-0.1086,-0.1087,-0.1123,-0.1123,-0.1123,0,0,0,0,0,0,0,0,0,0,0,0,0,-0.0993,-0.0973,-0.0995,-0.1026,-0.1029,-0.103,-0.103,-0.1031,-0.1083,-0.1085,-0.1086,-0.1088,-0.1122,-0.1123,-0.1123,-0.1095,0,0,-0.1123,-0.1123,0,0,0,0,0,0,0,0,-0.0992,-0.0993,-0.1021,-0.1024,-0.1027,-0.1054,-0.1036,-0.1052,-0.1083,-0.1063,-0.1087,-0.1088,-0.1099,-0.1101,-0.1104,-0.1097,-0.1098,-0.1123,-0.1123,-0.1123,-0.1123,0,0,0,0,0,0,0,-0.099,-0.0992,-0.1009,-0.1021,-0.1025,-0.1038,-0.1043,-0.1039,-0.1072,-0.1065,-0.1069,-0.1072,-0.1101,-0.1104,-0.1105,-0.1099,-0.1123,-0.1123,-0.1123,-0.1123,-0.107,-0.1069,0,0,0,0,0,0,-0.0984,-0.0991,-0.1007,-0.101,-0.1013,-0.1038,-0.1043,-0.1044,-0.1073,-0.1078,-0.1071,-0.1074,-0.1103,-0.1105,-0.1107,-0.1076,-0.1123,-0.1123,-0.1123,-0.1071,-0.107,-0.1068,0,0,0,0,0,0,-0.0983,-0.0985,-0.1006,-0.1001,-0.1005,-0.1036,-0.1038,-0.1044,-0.1047,-0.1077,-0.1083,-0.1068,-0.1104,-0.1107,-0.1097,-0.1078,-0.1123,-0.1123,-0.1073,-0.1071,-0.1069,-0.1014,0,0,0,0,0,0,-0.0983,-0.0985,-0.0974,-0.1001,-0.1005,-0.0996,-0.1037,-0.1044,-0.1047,-0.1052,-0.1076,-0.1082,-0.1106,-0.1097,-0.1098,-0.1079,-0.1123,-0.1075,-0.1072,-0.107,-0.1017,-0.101,-0.1003,0,0,0,0,0,-0.0982,-0.0958,-0.0974,-0.0975,-0.0993,-0.0995,-0.0997,-0.1025,-0.1046,-0.1036,-0.1055,-0.1081,-0.108,-0.1096,-0.1097,-0.1078,-0.1076,-0.1073,-0.107,-0.102,-0.1011,-0.1004,0,0,0,0,0,0,-0.0928,-0.0962,-0.098,-0.0963,-0.0976,-0.1004,-0.0992,-0.1015,-0.1021,-0.1026,-0.106,-0.1065,-0.1051,-0.1064,-0.1081,-0.1052,-0.1082,-0.1079,-0.1044,-0.1036,-0.1029,-0.1026,-0.1124,0,0,0,0,0,-0.0914,-0.0913,-0.0942,-0.0925,-0.093,-0.096,-0.0962,-0.0982,-0.0996,-0.1002,-0.102,-0.1033,-0.1036,-0.1037,-0.1041,-0.102,-0.1025,-0.1007,-0.1,-0.0994,-0.0991,-0.098,-0.0972,-0.1057,-0.1057,-0.1057,0,0,-0.0886,-0.0904,-0.0901,-0.0915,-0.0927,-0.0924,-0.0964,-0.096,-0.0958,-0.1001,-0.0993,-0.1007,-0.1024,-0.1008,-0.1003,-0.1018,-0.0969,-0.099,-0.0985,-0.0985,-0.0976,-0.0968,-0.0961,-0.1055,-0.1055,-0.1056,0,0,-0.0833,-0.0846,-0.0833,-0.0844,-0.0862,-0.0882,-0.0879,-0.0903,-0.0914,-0.0907,-0.0939,-0.0938,-0.0942,-0.0952,-0.0958,-0.0908,-0.0933,-0.0909,-0.0872,-0.0861,-0.0854,-0.0849,-0.083,-0.0824,-0.0906,-0.0905,-0.0905,0,-0.0795,-0.0793,-0.0824,-0.0817,-0.0822,-0.0861,-0.0848,-0.0857,-0.0875,-0.0878,-0.0895,-0.0901,-0.0915,-0.0902,-0.089,-0.0894,-0.0891,-0.0906,-0.0853,-0.0848,-0.0843,-0.0826,-0.0819,-0.0902,-0.0903,-0.0903,-0.0903,0,-0.0745,-0.0743,-0.073,-0.0746,-0.075,-0.074,-0.077,-0.0769,-0.079,-0.0808,-0.08,-0.0818,-0.0826,-0.0825,-0.0845,-0.0815,-0.0824,-0.0847,-0.0877,-0.0831,-0.0815,-0.0809,-0.0898,-0.0899,-0.09,-0.0901,0,0,-0.0658,-0.0692,-0.0687,-0.0694,-0.0717,-0.0716,-0.0708,-0.0716,-0.0715,-0.0726,-0.072,-0.0722,-0.0744,-0.075,-0.0772,-0.0762,-0.0721,-0.0786,-0.0787,-0.0773,-0.0688,-0.067,-0.0662,-0.0738,-0.0736,-0.0736,-0.0687,0,-0.0609,-0.0597,-0.0624,-0.0606,-0.0604,-0.0641,-0.0634,-0.0647,-0.0663,-0.0664,-0.0683,-0.0684,-0.0712,-0.0716,-0.0709,-0.0727,-0.0704,-0.0732,-0.0732,-0.0731,-0.0725,-0.0654,-0.0635,-0.0588,-0.0681,-0.068,-0.0679,0,-0.0549,-0.0557,-0.0538,-0.0561,-0.0562,-0.0555,-0.0564,-0.0565,-0.058,-0.0593,-0.06,-0.0625,-0.0619,-0.0649,-0.0641,-0.0659,-0.0661,-0.067,-0.0669,-0.0669,-0.0702,-0.0652,-0.0574,-0.0567,-0.067,-0.0671,-0.0672,0,-0.0487,-0.0493,-0.0482,-0.0488,-0.0515,-0.0509,-0.052,-0.0537,-0.054,-0.0549,-0.0551,-0.0558,-0.0562,-0.0568,-0.0594,-0.0614,-0.0582,-0.0615,-0.0592,-0.0592,-0.0583,-0.0583,-0.0504,-0.0586,-0.0586,-0.0586,-0.0586,0,-0.0428,-0.0415,-0.0454,-0.0447,-0.0434,-0.0466,-0.0451,-0.0466,-0.0481,-0.0477,-0.051,-0.0507,-0.0542,-0.0542,-0.0563,-0.0553,-0.0555,-0.0565,-0.057,-0.0561,-0.056,-0.0562,-0.0566,-0.0584,-0.0585,-0.0585,-0.0585,0,-0.0355,-0.0382,-0.0372,-0.0399,-0.0405,-0.0393,-0.0416,-0.0411,-0.043,-0.0425,-0.0426,-0.0456,-0.0458,-0.0485,-0.0493,-0.0507,-0.0488,-0.05,-0.0482,-0.0486,-0.0462,-0.0463,-0.038,-0.0371,-0.0459,-0.0458,-0.0458,0,-0.0316,-0.0306,-0.0332,-0.0332,-0.0341,-0.0341,-0.0344,-0.0376,-0.0378,-0.0395,-0.0387,-0.0392,-0.0397,-0.0398,-0.0421,-0.0427,-0.0439,-0.0409,-0.044,-0.0431,-0.0437,-0.0437,-0.0436,-0.0402,-0.0401,-0.04,-0.04,0,-0.0242,-0.0255,-0.0259,-0.0267,-0.0269,-0.0277,-0.0287,-0.0285,-0.032,-0.032,-0.0323,-0.0327,-0.0335,-0.0339,-0.0349,-0.036,-0.0385,-0.039,-0.0385,-0.0375,-0.0365,-0.0369,-0.0464,-0.0392,-0.0392,-0.0393,-0.0393,-0.0394,-0.0184,-0.0177,-0.0194,-0.0197,-0.0207,-0.0216,-0.0212,-0.023,-0.0233,-0.0242,-0.026,-0.0259,-0.0275,-0.0292,-0.0301,-0.0301,-0.0316,-0.0309,-0.0307,-0.0305,-0.0299,-0.0366,-0.0303,-0.0303,-0.0304,-0.0304,-0.0304,0,-0.0112,-0.0124,-0.0126,-0.0139,-0.0141,-0.0165,-0.0177,-0.0177,-0.0176,-0.0188,-0.0193,-0.0195,-0.0199,-0.0222,-0.0229,-0.0224,-0.0236,-0.0225,-0.0225,-0.0227,-0.0286,-0.0289,-0.0215,-0.0215,-0.0215,-0.0215,-0.0215,-0.0215,-0.0074,-0.0063,-0.0079,-0.0074,-0.0087,-0.0086,-0.0091,-0.0099,-0.0109,-0.011,-0.0114,-0.0129,-0.0145,-0.0153,-0.0158,-0.0165,-0.0165,-0.015,-0.016,-0.0215,-0.0223,-0.0231,-0.0234,-0.015,-0.015,-0.0102,-0.0101,-0.0101]},{"header":{"parameterUnit":"m.s-1","parameterCategory":1,"la1":30.2991,"la2":30.254,"lo1":-89.0895,"lo2":-89.0444,"dy":0.0017,"dx":0.0017,"nx":28,"ny":28,"refTime":"2025-07-15T21:00:00:Z","depth":0,"parameterNumber":3,"parameterNumberName":"V-component_of_WINDS"},"data":[0,0,0,0,0,0,0,0,0,0,0,0,0,0,0,0,0,0,0,0,0,0,0,0,0,0,0,0,0,0,0,0,0,0,0,0,0,0,0,0,0,0,0,0,0,0,0,0,0,0,0,0,0,0,0,0,0,0,-3.7118,-3.7117,0,-3.7049,-3.7048,-3.7048,-3.7017,-3.7017,-3.7018,-3.7018,-3.6942,-3.694,-3.6937,0,0,0,0,0,0,0,0,0,0,0,0,0,-3.7219,-3.7218,-3.7118,-3.7117,-3.7116,-3.7049,-3.7048,-3.7047,-3.7017,-3.7017,-3.7018,-3.7018,-3.6942,-3.694,-3.6937,0,0,0,0,0,0,0,0,0,0,0,0,0,-3.7165,-3.7217,-3.7118,-3.7093,-3.709,-3.705,-3.7048,-3.7047,-3.7017,-3.7017,-3.7018,-3.7018,-3.6943,-3.694,-3.6937,-3.6914,0,0,-3.6927,-3.6926,0,0,0,0,0,0,0,0,-3.7168,-3.7162,-3.7098,-3.7095,-3.7091,-3.7042,-3.7056,-3.7002,-3.7017,-3.7045,-3.7018,-3.7018,-3.6975,-3.6969,-3.6955,-3.691,-3.6907,-3.6927,-3.6925,-3.6924,-3.6923,0,0,0,0,0,0,0,-3.7172,-3.7164,-3.709,-3.7097,-3.7093,-3.7084,-3.7077,-3.7046,-3.7009,-3.7042,-3.704,-3.7033,-3.6973,-3.6959,-3.6953,-3.6906,-3.6927,-3.6924,-3.6922,-3.6921,-3.6842,-3.6842,0,0,0,0,0,0,-3.7181,-3.7168,-3.7093,-3.7088,-3.7131,-3.7083,-3.7074,-3.7058,-3.701,-3.7003,-3.7033,-3.7032,-3.6964,-3.6957,-3.6951,-3.6923,-3.6924,-3.6921,-3.6919,-3.6842,-3.6842,-3.6842,0,0,0,0,0,0,-3.7183,-3.7174,-3.7095,-3.7128,-3.7117,-3.7081,-3.7062,-3.7056,-3.7042,-3.7002,-3.6995,-3.7025,-3.6964,-3.6955,-3.6924,-3.6919,-3.6919,-3.6916,-3.6842,-3.6842,-3.6842,-3.6865,0,0,0,0,0,0,-3.7186,-3.7175,-3.7167,-3.7128,-3.7115,-3.7071,-3.7062,-3.7055,-3.7037,-3.7035,-3.6993,-3.6986,-3.6963,-3.6929,-3.6921,-3.6915,-3.6914,-3.6843,-3.6842,-3.6842,-3.6865,-3.6866,-3.6867,0,0,0,0,0,-3.719,-3.7174,-3.7166,-3.7157,-3.7104,-3.7071,-3.7064,-3.7039,-3.7037,-3.7028,-3.7003,-3.6988,-3.6922,-3.6927,-3.6917,-3.691,-3.6843,-3.6842,-3.6842,-3.6864,-3.6866,-3.6867,0,0,0,0,0,0,-3.721,-3.7168,-3.7159,-3.7131,-3.7105,-3.7066,-3.7053,-3.7041,-3.7014,-3.7012,-3.6981,-3.6972,-3.6945,-3.6924,-3.693,-3.6887,-3.6881,-3.6879,-3.6901,-3.6902,-3.6903,-3.6909,-3.6911,0,0,0,0,0,-3.7212,-3.719,-3.7154,-3.7132,-3.712,-3.709,-3.7074,-3.7058,-3.7029,-3.7017,-3.699,-3.6962,-3.6935,-3.6917,-3.689,-3.6862,-3.6853,-3.6853,-3.6854,-3.6855,-3.6853,-3.6839,-3.6839,-3.684,-3.684,-3.684,0,0,-3.7214,-3.7189,-3.7176,-3.7136,-3.7114,-3.7092,-3.708,-3.7056,-3.7039,-3.7013,-3.6984,-3.6963,-3.6929,-3.6901,-3.6887,-3.6883,-3.6851,-3.6854,-3.6855,-3.6853,-3.6839,-3.6839,-3.6839,-3.684,-3.684,-3.684,0,0,-3.7207,-3.7185,-3.7166,-3.7146,-3.7114,-3.7094,-3.709,-3.7054,-3.704,-3.7011,-3.6992,-3.697,-3.6924,-3.6902,-3.6884,-3.6874,-3.6859,-3.6865,-3.687,-3.6857,-3.6857,-3.6857,-3.6855,-3.6854,-3.6864,-3.6864,-3.6864,0,-3.7213,-3.718,-3.7157,-3.7136,-3.7119,-3.7098,-3.7079,-3.7059,-3.7019,-3.7008,-3.7005,-3.6949,-3.6924,-3.6892,-3.689,-3.6876,-3.687,-3.6869,-3.6859,-3.6859,-3.6858,-3.6856,-3.6855,-3.6865,-3.6865,-3.6865,-3.6865,0,-3.719,-3.7168,-3.7156,-3.7122,-3.7104,-3.7083,-3.7057,-3.7041,-3.7028,-3.7008,-3.698,-3.6951,-3.6919,-3.691,-3.6894,-3.6876,-3.6874,-3.6866,-3.6859,-3.686,-3.6857,-3.6856,-3.6866,-3.6866,-3.6866,-3.6865,0,0,-3.7191,-3.7148,-3.7144,-3.713,-3.7095,-3.7077,-3.7056,-3.7028,-3.7016,-3.699,-3.6972,-3.6935,-3.6928,-3.6909,-3.6891,-3.688,-3.6876,-3.6873,-3.6871,-3.6875,-3.6856,-3.6863,-3.6862,-3.6867,-3.6866,-3.6866,-3.6859,0,-3.718,-3.7144,-3.7124,-3.7096,-3.7076,-3.7057,-3.7039,-3.7016,-3.6999,-3.6978,-3.6958,-3.6933,-3.6925,-3.6914,-3.6902,-3.6879,-3.6871,-3.6879,-3.6849,-3.6849,-3.6859,-3.686,-3.6867,-3.6862,-3.6858,-3.6857,-3.6857,0,-3.7161,-3.714,-3.711,-3.7082,-3.7072,-3.7057,-3.7031,-3.7012,-3.6986,-3.6974,-3.6954,-3.6938,-3.6916,-3.6912,-3.6881,-3.6887,-3.6874,-3.6861,-3.686,-3.6856,-3.6853,-3.6857,-3.6859,-3.6859,-3.6855,-3.6855,-3.6855,0,-3.7167,-3.713,-3.7108,-3.7096,-3.7062,-3.7052,-3.7037,-3.7011,-3.6996,-3.6973,-3.6964,-3.6937,-3.6923,-3.6903,-3.688,-3.6879,-3.6852,-3.6846,-3.6842,-3.6843,-3.6836,-3.6837,-3.6837,-3.6827,-3.6827,-3.6827,-3.6827,0,-3.7156,-3.7139,-3.7111,-3.7098,-3.7079,-3.7057,-3.7039,-3.7022,-3.7,-3.6983,-3.6964,-3.6949,-3.692,-3.69,-3.6882,-3.6861,-3.6854,-3.6844,-3.6839,-3.6845,-3.6847,-3.6836,-3.6836,-3.6827,-3.6827,-3.6827,-3.6827,0,-3.7158,-3.7139,-3.7115,-3.7086,-3.7078,-3.7066,-3.704,-3.7027,-3.701,-3.6989,-3.6983,-3.6955,-3.6932,-3.6908,-3.6875,-3.6863,-3.6843,-3.6836,-3.6853,-3.685,-3.6848,-3.6849,-3.6841,-3.684,-3.6831,-3.6831,-3.6831,0,-3.7153,-3.714,-3.7112,-3.7101,-3.7087,-3.7068,-3.7054,-3.7033,-3.7019,-3.6991,-3.6981,-3.6958,-3.6937,-3.6901,-3.6878,-3.6853,-3.6846,-3.6846,-3.6842,-3.6851,-3.6848,-3.6849,-3.6849,-3.6846,-3.6846,-3.6847,-3.6847,0,-3.7146,-3.7139,-3.712,-3.71,-3.7085,-3.7066,-3.7047,-3.7039,-3.7014,-3.6999,-3.6977,-3.6962,-3.6931,-3.6908,-3.6882,-3.6866,-3.6852,-3.6849,-3.6847,-3.6853,-3.6864,-3.6859,-3.6856,-3.6848,-3.6848,-3.6848,-3.6848,-3.6848,-3.7145,-3.7134,-3.7114,-3.7095,-3.7079,-3.7063,-3.705,-3.7034,-3.7015,-3.699,-3.6979,-3.6957,-3.6934,-3.6898,-3.6883,-3.6865,-3.6861,-3.6857,-3.6857,-3.6856,-3.6859,-3.6867,-3.686,-3.686,-3.686,-3.686,-3.686,0,-3.7139,-3.7126,-3.7109,-3.7085,-3.7071,-3.7063,-3.7042,-3.703,-3.7012,-3.6993,-3.6975,-3.6951,-3.693,-3.6906,-3.6883,-3.6874,-3.6868,-3.6869,-3.6869,-3.6866,-3.6863,-3.6868,-3.6875,-3.6875,-3.6875,-3.6875,-3.6875,-3.6875,-3.7134,-3.7116,-3.7106,-3.7081,-3.7067,-3.7048,-3.7037,-3.7023,-3.7008,-3.6983,-3.6966,-3.6952,-3.6931,-3.6908,-3.6888,-3.6882,-3.6875,-3.6878,-3.687,-3.6867,-3.6866,-3.6865,-3.6869,-3.6876,-3.6876,-3.6875,-3.6875,-3.6875]}]]